Weather History for Tracy, MN

Change the Weather History Date:

Wednesday, February 5, 2014

  Actual Average (KMML) Record (KMML)
Temperature  
Mean Temperature 0 °F -  
Max Temperature 4 °F 25 °F 55 °F (1991)
Min Temperature -5 °F 3 °F -24 °F (1982)
Degree Days  
Heating Degree Days 66    
Moisture  
Dew Point -8 °F    
Average Humidity 71    
Maximum Humidity 78    
Minimum Humidity 61    
Precipitation  
Precipitation 0.00 in - - ()
Sea Level Pressure  
Sea Level Pressure 30.52 in    
Wind  
Wind Speed 15 mph (NNW)    
Max Wind Speed 20 mph    
Max Gust Speed 25 mph    
Visibility 9 miles    
Events Snow    
Averages and records for this station are not official NWS values.
T = Trace of Precipitation, MM = Missing Value Source: NWS Daily Summary

Daily Weather History Graph

Daily Weather History Graph

Search for Another Location

Airport:

Trip Planner

Search our weather history database for the weather conditions in past years. The results will help you decide how hot, cold, wet, or windy it might be!

Date:

Astronomy

Feb. 05, 2014 Rise Set
Actual Time 7:35 AM CST 5:37 PM CST
Civil Twilight 7:05 AM CST 6:08 PM CST
Nautical Twilight 6:30 AM CST 6:42 PM CST
Astronomical Twilight 5:56 AM CST 7:16 PM CST
Moon 10:35 AM CST (2/5) No Moon Set
Length of Visible Light 11h 03m
Length of Day
10h 02m
Waxing Crescent, 39% of the Moon is Illuminated
Feb 5
Waxing Crescent
Feb 6
First Quarter
Feb 14
Full
Feb 22
Last Quarter
Mar 1
New

Hourly Weather History & Observations

Time (CST) Temp. Windchill Dew Point Humidity Pressure Visibility Wind Dir Wind Speed Gust Speed Precip Events Conditions
12:17 AM -0.4 °F -21.7 °F -9.4 °F 66% 30.49 in 10.0 mi North 18.4 mph 24.2 mph N/A   Overcast
12:38 AM -0.4 °F -21.7 °F -9.8 °F 65% 30.49 in 10.0 mi North 18.4 mph 23.0 mph N/A   Overcast
12:57 AM -0.4 °F -22.3 °F -9.9 °F 64% 30.49 in 10.0 mi North 19.6 mph 23.0 mph N/A   Overcast
1:18 AM -0.4 °F -21.7 °F -10.3 °F 63% 30.50 in 10.0 mi North 18.4 mph - N/A   Overcast
1:37 AM -0.2 °F -19.6 °F -10.3 °F 62% 30.50 in 10.0 mi North 15.0 mph 21.9 mph N/A   Overcast
1:57 AM -0.0 °F -20.7 °F -10.5 °F 61% 30.50 in 10.0 mi North 17.3 mph 21.9 mph N/A   Overcast
2:17 AM -0.0 °F -20.1 °F -10.5 °F 61% 30.51 in 10.0 mi North 16.1 mph 21.9 mph N/A   Overcast
2:37 AM -0.4 °F -20.5 °F -10.3 °F 63% 30.51 in 10.0 mi North 16.1 mph - N/A   Overcast
2:57 AM -0.4 °F -21.2 °F -9.6 °F 65% 30.51 in 10.0 mi North 17.3 mph - N/A   Overcast
3:17 AM -0.4 °F -19.9 °F -9.8 °F 65% 30.51 in 10.0 mi North 15.0 mph 20.7 mph N/A   Overcast
3:37 AM -0.4 °F -20.5 °F -9.0 °F 67% 30.51 in 10.0 mi North 16.1 mph - N/A   Overcast
3:57 AM -0.4 °F -20.5 °F -8.5 °F 69% 30.51 in 10.0 mi North 16.1 mph - N/A   Overcast
4:17 AM -0.0 °F -19.4 °F -7.1 °F 72% 30.51 in 7.0 mi North 15.0 mph 18.4 mph N/A   Overcast
4:38 AM -0.2 °F -18.9 °F -6.7 °F 74% 30.51 in 5.0 mi NNW 13.8 mph 19.6 mph N/A Snow Light Snow
4:57 AM -0.4 °F -18.4 °F -6.2 °F 77% 30.50 in 5.0 mi North 12.7 mph - N/A Snow Light Snow
5:17 AM -0.0 °F -18.0 °F -5.8 °F 77% 30.51 in 7.0 mi North 12.7 mph - N/A   Overcast
5:38 AM 0.1 °F -18.5 °F -5.6 °F 77% 30.50 in 7.0 mi North 13.8 mph - N/A   Overcast
5:57 AM 0.1 °F -17.7 °F -5.3 °F 78% 30.51 in 7.0 mi North 12.7 mph - N/A   Scattered Clouds
6:17 AM 0.1 °F -17.7 °F -5.4 °F 77% 30.51 in 7.0 mi North 12.7 mph 17.3 mph N/A   Clear
6:38 AM 0.1 °F -17.7 °F -5.4 °F 77% 30.51 in 7.0 mi NNW 12.7 mph - N/A   Clear
6:57 AM -0.0 °F -18.0 °F -5.4 °F 78% 30.51 in 7.0 mi NNW 12.7 mph - N/A   Clear
7:18 AM -0.0 °F -18.0 °F -5.6 °F 77% 30.51 in 10.0 mi NNW 12.7 mph - N/A   Clear
7:38 AM -0.2 °F -17.4 °F -5.8 °F 77% 30.52 in 10.0 mi NNW 11.5 mph 18.4 mph N/A   Clear
7:57 AM -0.0 °F -18.0 °F -5.8 °F 77% 30.52 in 10.0 mi NNW 12.7 mph 17.3 mph N/A   Clear
8:18 AM -0.0 °F -20.1 °F -5.8 °F 77% 30.53 in 7.0 mi NNW 16.1 mph 21.9 mph N/A   Clear
8:38 AM -0.4 °F -19.2 °F -5.8 °F 78% 30.53 in 7.0 mi NNW 13.8 mph - N/A   Clear
8:58 AM -0.6 °F -18.6 °F -6.3 °F 77% 30.54 in 10.0 mi NNW 12.7 mph - N/A   Clear
9:17 AM -0.2 °F -20.3 °F -6.7 °F 74% 30.54 in 10.0 mi NNW 16.1 mph 21.9 mph N/A   Clear
9:38 AM 0.1 °F -20.5 °F -6.3 °F 74% 30.55 in 10.0 mi NNW 17.3 mph - N/A   Clear
9:57 AM 0.7 °F -17.8 °F -6.2 °F 73% 30.55 in 10.0 mi NNW 13.8 mph - N/A   Clear
10:17 AM 1.0 °F -18.0 °F -6.7 °F 70% 30.55 in 10.0 mi NNW 15.0 mph 19.6 mph N/A   Scattered Clouds
10:38 AM 1.0 °F -19.3 °F -7.2 °F 68% 30.56 in 10.0 mi NNW 17.3 mph 21.9 mph N/A   Scattered Clouds
10:57 AM 1.4 °F -16.1 °F -6.9 °F 68% 30.56 in 10.0 mi NNW 12.7 mph - N/A   Clear
11:17 AM 1.8 °F -17.1 °F -6.3 °F 69% 30.56 in 10.0 mi NW 15.0 mph 19.6 mph N/A   Scattered Clouds
11:37 AM 2.1 °F -17.9 °F -6.3 °F 68% 30.56 in 10.0 mi NW 17.3 mph 20.7 mph N/A   Clear
11:58 AM 2.3 °F -16.4 °F -6.0 °F 68% 30.56 in 5.0 mi NNW 15.0 mph 23.0 mph N/A   Haze
12:18 PM 2.7 °F -17.2 °F -6.0 °F 67% 30.55 in 7.0 mi NNW 17.3 mph - N/A   Scattered Clouds
12:38 PM 3.0 °F -15.5 °F -5.1 °F 69% 30.54 in 5.0 mi NNW 15.0 mph 20.7 mph N/A   Haze
12:58 PM 3.4 °F -15.0 °F -5.8 °F 66% 30.54 in 7.0 mi NW 15.0 mph 20.7 mph N/A   Scattered Clouds
1:17 PM 3.2 °F -17.1 °F -6.2 °F 65% 30.53 in 7.0 mi NW 18.4 mph - N/A   Mostly Cloudy
1:37 PM 3.6 °F -16.0 °F -5.4 °F 66% 30.53 in 5.0 mi NNW 17.3 mph - N/A   Haze
1:57 PM 4.3 °F -16.2 °F -5.6 °F 64% 30.53 in 7.0 mi NW 19.6 mph 25.3 mph N/A   Mostly Cloudy
2:18 PM 3.0 °F -16.1 °F -5.1 °F 69% 30.52 in 5.0 mi NNW 16.1 mph - N/A   Haze
2:37 PM 2.5 °F -14.8 °F -6.5 °F 66% 30.52 in 5.0 mi NNW 12.7 mph 23.0 mph N/A   Haze
2:57 PM 3.2 °F -17.1 °F -6.2 °F 65% 30.51 in 7.0 mi NNW 18.4 mph 23.0 mph N/A   Scattered Clouds
3:17 PM 2.8 °F -15.7 °F -5.6 °F 68% 30.52 in 7.0 mi NNW 15.0 mph 23.0 mph N/A   Scattered Clouds
3:38 PM 2.8 °F -16.4 °F -4.9 °F 70% 30.52 in 3.0 mi NNW 16.1 mph 21.9 mph N/A   Haze
3:57 PM 3.4 °F -15.0 °F -5.3 °F 67% 30.53 in 7.0 mi NW 15.0 mph - N/A   Mostly Cloudy
4:18 PM 2.5 °F -16.2 °F -5.6 °F 69% 30.53 in 5.0 mi NW 15.0 mph 24.2 mph N/A   Haze
4:37 PM 3.6 °F -14.8 °F -4.9 °F 68% 30.53 in 7.0 mi NW 15.0 mph - N/A   Mostly Cloudy
4:57 PM 2.5 °F -14.8 °F -5.4 °F 70% 30.53 in 7.0 mi NNW 12.7 mph 17.3 mph N/A   Scattered Clouds
5:17 PM 1.9 °F -16.9 °F -5.1 °F 72% 30.53 in 10.0 mi NW 15.0 mph - N/A   Scattered Clouds
5:37 PM 1.4 °F -17.6 °F -6.2 °F 71% 30.53 in 10.0 mi NW 15.0 mph - N/A   Clear
5:57 PM 0.9 °F -16.8 °F -6.9 °F 70% 30.53 in 10.0 mi NNW 12.7 mph - N/A   Clear
6:17 PM 0.1 °F -17.7 °F -5.6 °F 77% 30.54 in 10.0 mi NNW 12.7 mph - N/A   Clear
6:37 PM -0.4 °F -17.6 °F -7.6 °F 72% 30.54 in 10.0 mi NW 11.5 mph - N/A   Clear
6:58 PM -1.3 °F -15.7 °F -8.5 °F 72% 30.54 in 10.0 mi NW 8.1 mph - N/A   Clear
7:17 PM -2.2 °F -18.0 °F -9.0 °F 73% 30.54 in 10.0 mi NW 9.2 mph - N/A   Clear
7:37 PM -3.3 °F -16.9 °F -9.4 °F 75% 30.54 in 10.0 mi NW 6.9 mph - N/A   Clear
7:58 PM -3.6 °F - -9.6 °F 76% 30.54 in 10.0 mi Calm Calm - N/A   Clear
8:17 PM -5.1 °F -19.1 °F -10.3 °F 78% 30.53 in 10.0 mi WNW 6.9 mph - N/A   Clear
8:38 PM -3.1 °F - -8.5 °F 78% 30.53 in 10.0 mi Calm Calm - N/A   Clear
8:58 PM -4.4 °F - -10.3 °F 76% 30.53 in 10.0 mi Calm Calm - N/A   Clear
9:17 PM -4.7 °F - -10.3 °F 77% 30.53 in 10.0 mi Calm Calm - N/A   Clear
9:38 PM -5.1 °F - -11.2 °F 75% 30.52 in 10.0 mi Calm Calm - N/A   Clear
9:58 PM -4.9 °F - -11.2 °F 74% 30.52 in 10.0 mi Calm Calm - N/A   Clear
10:17 PM -4.5 °F -18.4 °F -11.2 °F 73% 30.52 in 10.0 mi West 6.9 mph - N/A   Clear
10:38 PM -4.4 °F -18.2 °F -10.7 °F 74% 30.51 in 10.0 mi West 6.9 mph - N/A   Clear
10:57 PM -4.7 °F -17.2 °F -11.2 °F 74% 30.50 in 10.0 mi West 5.8 mph - N/A   Clear
11:17 PM -4.2 °F -19.3 °F -10.7 °F 74% 30.50 in 10.0 mi WNW 8.1 mph - N/A   Clear
11:37 PM -4.2 °F -20.4 °F -11.2 °F 72% 30.50 in 10.0 mi WNW 9.2 mph - N/A   Clear
11:58 PM -4.0 °F -23.0 °F -11.2 °F 71% 30.49 in 10.0 mi WNW 12.7 mph - N/A   Clear